This is the latest recevied weather packets stored in our database for station/object DG4MJS-10. If no packets are shown the sender has not sent any weather packets the latest 10 day(s).
| Time | Temp. | Humidity | Pressure | Rain* | Wind** | Luminosity | Snow |
|---|---|---|---|---|---|---|---|
| 1778018414 | 15° C | 64% | 1008.7 hPa | - | - | - | - |
| 1778017514 | 15° C | 63% | 1008.6 hPa | - | - | - | - |
| 1778016614 | 15° C | 62% | 1008.4 hPa | - | - | - | - |
| 1778015714 | 15.56° C | 61% | 1008.4 hPa | - | - | - | - |
| 1778014814 | 15.56° C | 61% | 1008.6 hPa | - | - | - | - |
| 1778013914 | 15.56° C | 62% | 1008.6 hPa | - | - | - | - |
| 1778013013 | 15.56° C | 68% | 1008.7 hPa | - | - | - | - |
| 1778012113 | 15.56° C | 70% | 1008.7 hPa | - | - | - | - |
| 1778011213 | 15.56° C | 71% | 1008.4 hPa | - | - | - | - |
| 1778010313 | 15.56° C | 71% | 1008 hPa | - | - | - | - |
| 1778009413 | 15.56° C | 70% | 1007.7 hPa | - | - | - | - |
| 1778008513 | 15.56° C | 70% | 1007.6 hPa | - | - | - | - |
| 1778007613 | 16.11° C | 66% | 1007.5 hPa | - | - | - | - |
| 1778006713 | 16.11° C | 64% | 1007.4 hPa | - | - | - | - |
| 1778005813 | 16.11° C | 63% | 1007.4 hPa | - | - | - | - |
| 1778004913 | 16.11° C | 61% | 1007 hPa | - | - | - | - |
| 1778004013 | 16.11° C | 61% | 1006.8 hPa | - | - | - | - |
| 1778003113 | 16.67° C | 61% | 1006.5 hPa | - | - | - | - |
| 1778002212 | 16.67° C | 61% | 1006.5 hPa | - | - | - | - |
| 1778001312 | 16.67° C | 61% | 1006.9 hPa | - | - | - | - |
| 1778000412 | 16.67° C | 60% | 1006.8 hPa | - | - | - | - |
| 1777999512 | 16.67° C | 58% | 1006.9 hPa | - | - | - | - |
| 1777998611 | 16.67° C | 60% | 1006.9 hPa | - | - | - | - |
| 1777997713 | 16.67° C | 57% | 1007 hPa | - | - | - | - |
| 1777996813 | 16.67° C | 57% | 1006.9 hPa | - | - | - | - |
* Rain since midnight (hover to see other rain measurements)
** Current wind speed in m/s (hover to see current wind gust speed)